Theta_e
306 306 307 307 311 318 323 328 334 326 324 327 327 325 326 323 326 327 331 332 333 326 326 327 328 331 330 329 329 328 328 337 342 341 338 336 335 338 334 333 334 337 340 356
305 306 306 306 309 314 313 332 335 327 326 328 327 325 324 324 325 327 331 332 333 329 329 331 332 335 333 332 336 336 334 339 344 343 336 336 339 338 336 334 331 339 345 358
306 305 306 305 308 314 314 331 340 329 327 327 327 328 330 325 328 332 330 333 330 332 334 336 338 337 334 333 334 336 333 336 342 344 340 340 339 338 338 333 332 335 352 351
308 305 305 305 307 316 317 331 342 338 331 327 327 328 331 334 333 331 331 335 332 340 341 339 339 337 335 333 330 334 334 339 339 339 339 338 337 339 339 339 335 335 340 347
310 306 305 305 307 320 321 341 341 336 337 337 327 327 332 335 334 334 336 338 339 337 339 339 340 340 339 340 336 335 331 339 341 339 340 339 337 338 338 337 337 330 338 346
313 307 304 305 305 314 324 333 331 333 335 338 333 330 334 335 339 338 338 338 339 340 339 337 336 336 336 336 336 333 334 337 341 343 341 340 341 339 338 338 335 329 339 344
315 309 305 304 306 307 312 324 331 335 341 341 341 337 330 333 340 340 336 336 338 337 336 335 332 332 334 334 334 332 334 336 337 339 342 347 336 336 337 337 331 330 341 344
315 311 305 304 304 305 308 315 327 333 339 339 339 336 335 337 335 334 336 335 334 334 335 337 336 336 334 335 334 330 329 333 337 334 334 333 334 332 334 333 335 334 339 341
315 313 307 304 304 304 306 314 325 327 337 342 337 336 335 335 334 337 337 333 333 333 334 337 339 338 341 337 338 331 331 332 331 333 335 334 332 333 330 330 337 334 340 339
315 314 310 304 304 304 305 313 323 325 331 336 329 334 334 335 338 340 338 338 334 332 334 335 335 338 335 338 340 338 337 334 335 336 338 336 338 332 332 337 342 339 340 340
315 314 312 305 303 304 305 310 320 322 326 325 324 327 330 330 335 339 337 337 337 336 336 334 335 336 334 335 337 336 335 336 334 336 340 346 339 339 343 339 338 337 337 339
316 313 312 306 303 303 304 315 311 319 325 324 323 323 324 325 328 331 336 338 338 338 341 341 339 338 338 339 338 335 336 335 336 335 347 339 337 334 336 335 336 335 332 332
316 313 312 306 303 303 305 308 310 318 325 327 328 328 327 326 325 328 333 334 333 336 335 338 338 337 334 337 338 334 336 337 336 334 340 337 334 335 335 333 331 331 330 330
314 312 311 305 303 303 305 308 308 314 324 330 328 328 328 327 326 328 329 329 330 331 333 336 336 336 334 333 334 333 337 336 336 335 339 336 337 335 332 333 332 331 330 329
310 310 309 304 302 303 306 307 309 315 322 329 327 324 327 327 327 326 327 328 328 331 334 334 334 332 332 332 331 333 334 336 335 339 342 339 337 333 333 334 331 329 330 328
309 308 306 303 302 304 312 324 320 320 324 328 329 326 328 327 326 326 327 329 328 329 331 333 331 335 335 334 334 335 329 333 338 341 337 335 333 333 333 332 329 327 326 324
307 306 304 302 303 306 313 321 321 317 320 328 330 326 327 328 328 327 328 328 329 331 332 331 331 335 334 334 335 336 334 334 335 336 336 335 333 333 331 328 326 325 324 322
305 305 303 303 306 310 311 311 308 311 318 326 330 332 331 328 330 330 328 331 330 332 332 332 334 335 336 336 336 335 335 333 333 335 335 334 331 329 328 326 325 326 323 320
304 303 304 309 313 316 321 319 316 316 322 331 330 328 333 329 331 330 331 332 335 332 333 332 332 336 337 339 333 336 335 333 334 333 333 332 331 330 328 326 324 323 320 318
305 307 317 322 322 319 318 318 324 323 326 327 331 332 333 330 332 332 335 333 333 336 335 334 335 334 335 340 337 339 335 333 331 335 335 333 331 329 327 323 320 319 319 319
314 318 323 320 321 321 324 328 325 326 327 325 324 324 327 328 334 333 334 337 335 335 333 337 337 335 335 338 341 338 335 332 333 335 333 332 330 327 324 321 319 318 319 319
308 309 310 317 325 326 328 329 331 330 330 331 326 326 324 328 334 337 336 333 336 337 336 337 337 341 344 340 340 338 334 333 332 330 329 329 327 325 322 320 318 318 318 319
312 312 320 323 325 322 327 329 330 332 330 331 331 330 329 332 334 336 337 335 336 334 338 338 339 345 341 337 336 335 334 331 329 327 325 323 321 319 318 317 316 316 318 317
315 318 316 324 325 326 327 328 330 330 332 331 331 331 328 334 333 335 338 336 333 335 336 335 345 344 343 338 335 334 332 330 328 326 323 322 321 319 318 316 315 315 315 314
316 318 320 321 323 325 325 327 327 328 332 331 330 331 329 333 333 334 333 334 336 335 333 340 345 344 340 339 337 333 331 329 327 325 322 321 319 318 319 317 316 315 314 314
313 315 321 323 324 324 324 325 330 332 329 330 332 330 331 332 333 333 335 333 333 338 348 346 344 342 341 339 336 332 330 329 327 325 323 321 319 319 318 318 318 317 316 314
310 312 315 317 319 322 323 325 324 324 331 335 333 332 333 332 333 334 333 333 336 344 343 342 342 343 342 338 334 332 330 330 328 325 323 320 318 320 319 320 319 319 317 315
Wind_Speed
30 30 31 33 34 33 8 6 3 23 25 5 4 8 7 8 25 25 16 6 7 10 11 10 9 10 10 12 6 6 4 5 5 5 5 7 8 5 3 3 9 4 6 4
31 31 31 33 33 29 9 3 5 16 19 5 8 9 18 22 25 26 12 7 8 5 7 7 4 4 13 9 7 3 5 2 4 9 7 5 6 5 12 8 1 2 4 4
31 32 32 32 33 26 2 3 3 2 5 8 12 11 13 19 19 18 10 10 10 10 8 6 6 4 6 10 6 2 5 5 7 6 8 3 6 8 10 6 4 3 3 5
30 32 33 33 33 25 7 3 4 5 4 10 13 14 14 19 16 15 9 10 11 11 8 11 11 1 4 9 3 2 7 5 8 6 7 4 3 3 12 15 13 3 8 10
29 31 33 34 34 19 4 1 1 5 9 13 13 14 15 12 15 5 5 6 21 24 10 4 1 3 5 7 8 3 2 7 4 4 2 8 7 6 9 15 17 4 9 7
28 29 31 33 32 21 6 9 2 2 9 11 6 8 5 2 5 9 15 18 17 17 7 4 12 10 6 4 3 5 3 7 5 5 3 7 7 13 2 9 13 7 7 5
26 28 28 29 29 26 7 8 7 3 7 10 10 19 14 5 2 3 7 13 3 13 6 3 8 5 14 17 18 8 11 7 4 5 8 3 9 16 14 9 6 5 12 11
24 26 27 27 27 24 15 7 5 3 5 8 15 19 6 7 4 7 7 8 6 8 7 3 3 5 4 7 20 16 5 4 4 4 1 6 8 9 4 5 6 8 9 10
23 24 25 26 26 26 21 12 7 4 3 3 18 14 3 3 2 4 3 25 17 5 5 5 1 4 7 5 10 5 6 6 5 4 2 2 8 4 8 8 5 7 12 10
21 22 23 24 25 25 24 9 9 6 4 5 10 10 9 7 1 2 8 19 10 8 5 7 7 3 3 2 12 9 3 3 3 2 0 3 9 8 5 4 2 14 14 14
18 21 22 22 23 24 24 13 12 8 3 11 7 9 9 8 5 4 14 8 4 1 2 2 1 4 7 5 2 5 3 3 1 1 1 1 8 8 5 4 8 14 13 10
16 19 21 21 21 22 18 7 15 16 4 6 24 28 24 16 9 4 5 4 6 2 4 4 3 4 4 4 2 7 2 5 4 5 5 4 4 7 8 11 11 9 12 11
16 17 20 19 20 20 18 12 16 14 3 7 5 8 14 19 14 11 1 4 4 6 2 1 2 4 4 3 2 5 5 7 3 6 3 6 8 11 10 12 13 13 12 12
15 17 18 18 19 19 19 10 12 10 4 4 5 23 3 5 3 5 6 7 8 3 4 3 3 2 3 2 2 3 3 3 4 3 6 8 8 11 11 14 13 12 12 12
14 16 17 18 19 20 20 17 13 9 5 4 8 24 21 6 5 6 1 6 5 2 1 1 1 2 2 2 2 1 2 2 2 4 7 6 7 9 13 13 11 9 10 10
14 16 17 18 18 19 8 2 3 3 7 3 4 6 6 5 5 5 4 3 3 2 2 2 3 3 3 1 2 3 8 3 10 5 7 12 10 11 13 12 10 8 9 9
15 16 17 17 16 15 5 3 0 8 6 2 4 3 4 11 2 2 3 3 3 2 1 1 1 1 3 2 2 4 7 7 8 12 12 10 10 9 10 13 11 11 18 17
17 17 18 17 13 14 10 7 10 9 5 3 3 4 1 6 3 2 3 2 2 2 1 3 2 2 2 2 2 2 4 9 7 9 9 10 12 10 9 13 8 6 8 8
18 18 14 7 3 4 2 3 3 6 4 3 3 3 3 5 3 3 1 2 1 3 3 3 1 2 3 5 5 2 7 6 8 10 14 13 13 10 8 8 7 8 7 7
13 8 4 3 3 2 2 1 3 4 4 4 4 3 6 2 4 2 3 2 2 2 5 3 3 3 4 5 9 9 9 8 8 12 10 10 10 9 7 9 7 6 6 9
1 3 2 8 5 3 3 3 4 5 4 4 5 8 6 5 4 4 2 3 3 3 5 5 4 4 6 9 9 9 9 8 6 9 8 10 12 11 10 8 8 8 8 9
6 10 9 5 4 3 5 4 4 5 5 4 6 6 6 4 1 1 2 2 1 4 1 3 3 1 2 11 10 9 8 11 14 17 13 14 15 16 14 11 8 11 10 9
3 2 3 3 3 1 6 7 4 3 3 4 5 5 4 3 1 2 1 2 3 1 2 3 3 4 6 9 8 8 13 17 16 15 20 20 17 19 17 12 9 8 10 8
2 3 4 4 5 6 6 7 7 5 2 4 3 3 4 2 2 2 4 3 2 3 4 5 5 7 6 7 7 12 14 15 14 12 16 15 14 15 16 15 9 10 10 6
2 3 4 8 8 8 7 8 9 8 3 4 3 1 2 3 3 4 2 4 4 3 6 2 7 8 8 7 9 13 14 13 11 14 12 13 16 13 12 15 13 11 8 6
2 4 6 8 7 7 6 7 4 2 3 3 5 3 2 3 3 4 5 3 3 3 3 6 8 8 7 8 9 10 13 14 14 15 16 17 16 14 14 8 10 14 12 8
3 6 8 9 9 8 6 9 5 12 2 1 2 5 6 2 3 6 4 6 2 8 8 6 7 7 7 9 10 10 14 14 16 18 18 18 14 11 16 9 8 10 14 12
Wind_Direction
359 358 359 0 2 358 20 286 260 146 154 175 215 238 250 270 279 287 289 299 277 209 210 189 219 208 210 178 177 156 218 92 87 286 313 84 79 3 345 84 283 179 159 283
358 358 359 2 6 4 337 274 260 163 185 217 234 239 250 261 271 278 277 263 301 211 222 184 182 88 34 89 72 47 355 46 57 348 341 16 65 332 319 342 6 358 86 245
357 358 359 359 1 354 292 281 269 163 210 249 269 290 270 254 266 271 292 299 301 309 321 117 147 133 104 84 88 171 71 48 126 168 225 129 289 317 317 315 37 336 157 183
356 357 359 357 357 347 180 224 274 298 228 231 241 262 282 287 288 274 274 298 263 20 26 64 356 33 116 96 107 62 117 127 133 196 230 187 259 297 320 318 308 43 163 180
355 357 0 1 359 359 235 296 342 319 293 275 216 236 261 289 295 317 331 49 73 45 34 128 137 352 70 36 317 175 256 177 121 224 23 314 325 346 301 303 305 46 80 68
354 357 1 5 4 15 339 351 300 283 281 304 282 241 232 240 330 38 28 91 92 77 295 208 112 116 84 107 160 333 290 149 153 183 39 327 312 239 109 293 294 84 91 113
352 355 360 5 9 15 328 301 313 290 297 322 329 319 240 248 250 76 12 334 242 166 157 245 150 60 91 69 307 290 261 150 140 147 144 179 235 196 204 217 27 55 97 93
349 353 357 0 2 1 345 286 320 319 302 310 332 356 52 105 275 107 5 304 270 149 113 23 41 47 99 213 252 280 81 81 52 102 357 317 351 25 77 114 34 91 113 103
344 349 353 356 358 355 355 308 294 297 288 254 333 339 147 147 291 88 40 300 251 64 85 30 75 184 190 215 354 96 81 103 105 50 55 281 275 126 99 91 23 37 94 105
339 344 348 353 355 354 349 288 344 299 283 248 347 344 348 41 68 143 131 254 252 163 174 197 199 135 156 235 170 205 82 55 94 35 182 79 328 29 38 68 212 44 74 87
331 340 342 348 352 355 354 307 359 341 296 293 289 346 338 352 20 47 323 280 298 74 147 156 291 98 195 180 249 114 132 112 211 275 261 132 319 33 85 190 58 82 64 73
323 334 338 342 347 350 355 301 326 334 251 264 301 288 267 266 275 232 250 250 352 68 53 1 32 35 43 49 51 3 70 157 155 130 177 177 59 93 69 83 80 68 76 55
318 325 332 336 340 344 349 309 323 329 265 289 246 245 292 222 229 267 21 330 340 28 77 37 30 56 48 43 340 24 26 13 77 83 171 132 100 65 74 85 87 73 69 71
313 321 327 331 333 334 333 309 292 302 272 281 295 358 331 182 267 320 343 313 331 12 53 61 64 58 38 317 244 132 163 90 122 100 130 100 97 105 95 80 74 78 73 70
307 316 321 326 328 327 320 294 282 244 281 314 305 306 289 176 198 259 277 307 327 352 29 74 234 221 43 279 32 297 134 146 132 212 159 136 142 116 107 95 83 71 84 72
303 310 316 320 324 328 341 240 111 281 9 277 287 339 275 70 34 93 287 271 257 207 160 211 215 135 121 164 177 69 19 344 136 154 106 106 107 101 104 107 98 75 94 91
303 308 310 311 316 317 254 294 108 14 345 263 281 267 260 148 197 185 251 240 245 121 200 244 246 149 109 99 186 321 52 76 79 103 106 96 99 100 96 104 107 104 102 96
303 304 305 305 298 288 285 269 251 250 268 272 275 268 89 157 199 237 202 189 109 309 208 348 175 38 120 184 135 16 115 110 96 110 114 113 109 94 85 81 82 111 100 101
304 306 308 297 231 236 169 183 177 201 261 299 254 280 283 150 209 200 151 164 187 211 177 222 39 186 193 181 165 59 132 121 130 90 101 110 109 108 109 124 105 89 99 95
312 314 238 223 117 200 212 161 190 203 206 221 251 288 281 220 172 234 147 119 207 282 221 150 168 236 221 191 181 158 143 134 131 123 129 129 124 124 107 99 93 90 101 106
342 281 1 329 302 250 219 231 208 177 222 207 222 234 263 301 154 197 219 160 192 217 242 155 196 216 217 164 136 137 134 134 132 121 118 123 125 124 116 107 113 125 123 112
328 301 296 280 236 216 244 218 217 211 219 223 192 212 190 259 230 146 188 161 148 258 249 157 203 277 214 142 134 126 124 102 96 96 94 92 94 103 104 114 117 108 105 109
286 240 249 207 219 20 228 220 206 209 249 244 179 193 168 224 328 86 355 195 224 192 271 199 189 154 119 126 121 117 104 106 103 97 95 96 96 104 109 101 99 118 112 108
255 237 289 221 212 222 211 247 252 247 267 200 170 181 158 153 42 261 175 235 282 242 196 228 163 167 137 126 125 115 120 116 112 111 111 112 111 107 117 115 107 92 89 81
263 265 244 229 251 284 303 239 249 270 279 127 161 125 176 127 181 216 210 194 211 216 237 188 139 134 123 119 118 124 123 121 120 123 123 126 127 138 143 151 153 143 150 146
247 244 263 276 272 267 304 349 299 335 78 225 233 150 181 202 192 210 214 214 221 254 119 128 123 127 127 126 120 128 127 129 131 134 142 138 146 156 151 165 185 172 159 155
251 240 252 269 286 300 336 324 345 329 320 219 272 181 200 138 246 228 201 232 189 131 122 127 126 130 123 115 119 124 134 134 132 138 144 148 166 167 160 185 206 168 176 180